Weather History for Preston, MN

Change the Weather History Date:

Monday, August 5, 2013

  Actual Average (KRST) Record (KRST)
Temperature  
Mean Temperature 65 °F 70 °F  
Max Temperature 72 °F 80 °F 99 °F (1947)
Min Temperature 58 °F 60 °F 42 °F (1948)
Degree Days  
Heating Degree Days 0 1  
Month to date heating degree days 2  
Since 1 July heating degree days 13  
Cooling Degree Days 0 6  
Month to date cooling degree days 30  
Year to date cooling degree days 401  
Growing Degree Days 15 (Base 50)    
Moisture  
Dew Point 62 °F    
Average Humidity 90    
Maximum Humidity 98    
Minimum Humidity 77    
Precipitation  
Precipitation 0.40 in 0.15 in 0.67 in (2000)
Month to date precipitation 0.73  
Year to date precipitation 20.40  
Snow  
Snow 0.00 in 0.00 in 0.00 in (2012)
Month to date snowfall 0.0  
Since 1 July snowfall 0.0  
Snow Depth -    
Sea Level Pressure  
Sea Level Pressure 29.94 in    
Wind  
Wind Speed 7 mph (South)    
Max Wind Speed 24 mph    
Max Gust Speed 31 mph    
Visibility 8 miles    
Events Fog , Rain , Thunderstorm    
T = Trace of Precipitation, MM = Missing Value Source: NWS Daily Summary

Daily Weather History Graph

Daily Weather History Graph

Search for Another Location

Airport:

Trip Planner

Search our weather history database for the weather conditions in past years. The results will help you decide how hot, cold, wet, or windy it might be!

Date:

Astronomy

Aug. 05, 2013 Rise Set
Actual Time 6:02 AM CDT 8:26 PM CDT
Civil Twilight 5:30 AM CDT 8:58 PM CDT
Nautical Twilight 4:50 AM CDT 9:38 PM CDT
Astronomical Twilight 4:05 AM CDT 10:22 PM CDT
Moon 4:58 AM CDT (8/5) 7:25 PM CDT (8/5)
Length of Visible Light 15h 28m
Length of Day
14h 23m
Waning Crescent, 1% of the Moon is Illuminated
Aug 5
Waning Crescent
Aug 6
New
Aug 14
First Quarter
Aug 20
Full
Aug 28
Last Quarter

Hourly Weather History & Observations

Time (CDT) Temp. Dew Point Humidity Pressure Visibility Wind Dir Wind Speed Gust Speed Precip Events Conditions
12:13 AM 59.7 °F 55.8 °F 87% 30.07 in 10.0 mi SE 3.5 mph - N/A   Clear
12:33 AM 59.4 °F 55.0 °F 86% 30.07 in 10.0 mi SSE 3.5 mph - N/A   Clear
12:52 AM 59.9 °F 55.2 °F 84% 30.07 in 10.0 mi SSE 4.6 mph - N/A   Clear
1:13 AM 60.4 °F 55.4 °F 83% 30.07 in 10.0 mi South 4.6 mph - N/A   Clear
1:33 AM 60.6 °F 55.0 °F 82% 30.06 in 10.0 mi South 5.8 mph - N/A   Clear
1:53 AM 60.8 °F 54.9 °F 81% 30.05 in 10.0 mi SSE 4.6 mph - N/A   Clear
2:13 AM 61.0 °F 54.9 °F 80% 30.04 in 10.0 mi SSE 6.9 mph - N/A   Clear
2:33 AM 61.2 °F 54.5 °F 79% 30.04 in 10.0 mi South 6.9 mph - N/A   Clear
2:53 AM 61.2 °F 54.5 °F 79% 30.03 in 10.0 mi SSE 5.8 mph - N/A   Scattered Clouds
3:13 AM 61.7 °F 54.5 °F 77% 30.03 in 10.0 mi South 4.6 mph - N/A   Mostly Cloudy
3:33 AM 60.1 °F 55.6 °F 85% 30.04 in 7.0 mi SSW 4.6 mph - 0.01 in Rain Light Rain
3:53 AM 59.9 °F 55.9 °F 87% 30.04 in 7.0 mi SSW 4.6 mph - 0.04 in Rain Rain
4:13 AM 59.2 °F 56.5 °F 91% 30.05 in 4.0 mi Calm Calm - 0.04 in Rain Rain
4:33 AM 59.4 °F 56.8 °F 91% 30.06 in 7.0 mi SSW 4.6 mph - 0.07 in Rain Rain
4:53 AM 59.0 °F 57.2 °F 94% 30.05 in 5.0 mi South 5.8 mph - 0.11 in Rain Rain
5:13 AM 58.8 °F 57.6 °F 96% 30.03 in 5.0 mi South 9.2 mph - 0.05 in Rain Heavy Rain
5:32 AM 59.0 °F 58.1 °F 97% 30.02 in 4.0 mi SSE 8.1 mph - 0.11 in Rain Rain
5:53 AM 59.0 °F 58.1 °F 97% 30.02 in 7.0 mi SSE 8.1 mph - 0.15 in Rain Light Rain
6:13 AM 59.0 °F 58.1 °F 97% 30.02 in 5.0 mi South 9.2 mph - 0.04 in Rain Heavy Rain
6:33 AM 59.4 °F 58.6 °F 97% 29.93 in 4.0 mi SSE 24.2 mph 31.1 mph 0.08 in Rain Light Rain
6:52 AM 60.4 °F 59.5 °F 97% 29.96 in 10.0 mi SSE 9.2 mph 24.2 mph 0.09 in   Mostly Cloudy
7:13 AM 61.2 °F 59.9 °F 96% 29.96 in 10.0 mi SSE 10.4 mph - N/A   Overcast
7:33 AM 61.7 °F 60.3 °F 95% 29.96 in 10.0 mi South 11.5 mph - N/A   Overcast
7:53 AM 61.3 °F 60.3 °F 96% 29.96 in 10.0 mi South 15.0 mph - N/A   Overcast
8:13 AM 61.7 °F 60.8 °F 97% 29.94 in 10.0 mi South 10.4 mph - N/A   Overcast
8:33 AM 63.5 °F 62.4 °F 96% 29.93 in 10.0 mi South 16.1 mph 25.3 mph N/A   Overcast
8:53 AM 65.3 °F 63.1 °F 93% 29.92 in 10.0 mi South 16.1 mph 24.2 mph N/A   Mostly Cloudy
9:13 AM 66.2 °F 62.6 °F 88% 29.93 in 10.0 mi South 18.4 mph 25.3 mph 0.01 in   Mostly Cloudy
9:33 AM 67.1 °F 62.2 °F 84% 29.93 in 10.0 mi South 18.4 mph 24.2 mph 0.01 in   Mostly Cloudy
9:53 AM 67.1 °F 62.6 °F 85% 29.94 in 10.0 mi South 12.7 mph 17.3 mph 0.01 in   Mostly Cloudy
10:13 AM 68.0 °F 62.8 °F 83% 29.92 in 10.0 mi South 15.0 mph 23.0 mph N/A   Overcast
10:33 AM 67.5 °F 62.8 °F 85% 29.94 in 10.0 mi SSW 10.4 mph - N/A   Overcast
10:53 AM 65.7 °F 62.2 °F 89% 29.94 in 10.0 mi SSW 11.5 mph 17.3 mph N/A   Overcast
11:12 AM 65.7 °F 62.8 °F 90% 29.94 in 10.0 mi South 10.4 mph - N/A Thunderstorm Thunderstorm
11:33 AM 65.5 °F 61.7 °F 88% 29.93 in 10.0 mi SSW 12.7 mph 19.6 mph N/A   Overcast
11:53 AM 65.1 °F 61.5 °F 88% 29.93 in 10.0 mi South 11.5 mph 17.3 mph N/A   Overcast
12:13 PM 64.6 °F 61.7 °F 90% 29.93 in 10.0 mi South 12.7 mph - N/A   Overcast
12:33 PM 64.4 °F 62.6 °F 94% 29.92 in 7.0 mi South 9.2 mph - N/A Rain , Thunderstorm Light Thunderstorms and Rain
12:53 PM 64.8 °F 62.8 °F 93% 29.92 in 10.0 mi South 11.5 mph - N/A   Overcast
1:13 PM 65.7 °F 63.1 °F 92% 29.91 in 10.0 mi South 9.2 mph - N/A   Overcast
1:33 PM 66.2 °F 63.3 °F 90% 29.91 in 10.0 mi South 9.2 mph - N/A   Overcast
1:53 PM 66.2 °F 63.3 °F 90% 29.90 in 10.0 mi SSW 10.4 mph - N/A   Overcast
2:13 PM 66.6 °F 63.5 °F 90% 29.90 in 10.0 mi SSW 6.9 mph - N/A   Overcast
2:33 PM 67.1 °F 63.9 °F 89% 29.89 in 10.0 mi South 8.1 mph - N/A   Overcast
2:53 PM 68.0 °F 64.4 °F 88% 29.89 in 10.0 mi South 9.2 mph - N/A   Overcast
3:13 PM 67.5 °F 64.4 °F 90% 29.89 in 10.0 mi South 8.1 mph - N/A   Overcast
3:33 PM 67.6 °F 64.8 °F 90% 29.88 in 10.0 mi SSW 5.8 mph - N/A   Overcast
3:53 PM 68.2 °F 65.3 °F 90% 29.88 in 7.0 mi Calm Calm - N/A   Overcast
4:13 PM 68.4 °F 65.8 °F 92% 29.88 in 7.0 mi SSW 3.5 mph - N/A   Overcast
4:33 PM 68.7 °F 66.2 °F 92% 29.88 in 5.0 mi Calm Calm - N/A   Overcast
4:53 PM 69.3 °F 66.7 °F 92% 29.88 in 2.5 mi West 5.8 mph - N/A   Overcast
5:13 PM 69.1 °F 67.1 °F 93% 29.88 in 4.0 mi West 4.6 mph - N/A   Overcast
5:33 PM 69.4 °F 67.6 °F 94% 29.88 in 3.0 mi Calm Calm - N/A   Overcast
5:53 PM 70.7 °F 67.3 °F 89% 29.87 in 7.0 mi NW 3.5 mph - N/A   Overcast
6:13 PM 71.4 °F 67.3 °F 87% 29.87 in 10.0 mi NNW 3.5 mph - N/A   Overcast
6:33 PM 72.5 °F 67.1 °F 83% 29.87 in 7.0 mi Calm Calm - N/A   Scattered Clouds
6:53 PM 72.0 °F 66.4 °F 83% 29.87 in 10.0 mi North 3.5 mph - N/A   Clear
7:13 PM 72.5 °F 67.1 °F 83% 29.87 in 10.0 mi Calm Calm - N/A   Mostly Cloudy
7:33 PM 71.1 °F 67.5 °F 88% 29.87 in 7.0 mi SE 4.6 mph - N/A   Scattered Clouds
7:53 PM 69.8 °F 67.1 °F 91% 29.86 in 7.0 mi SE 4.6 mph - N/A   Clear
8:13 PM 68.7 °F 66.4 °F 92% 29.86 in 7.0 mi SSE 3.5 mph - N/A   Clear
8:33 PM 67.5 °F 65.7 °F 94% 29.86 in 5.0 mi SE 4.6 mph - N/A   Clear
8:53 PM 67.1 °F 65.8 °F 96% 29.87 in 2.5 mi SSE 3.5 mph - N/A   Clear
9:13 PM 67.1 °F 66.2 °F 97% 29.87 in 3.0 mi South 5.8 mph - N/A   Clear
9:32 PM 67.1 °F 66.4 °F 98% 29.88 in 1.8 mi SSW 4.6 mph - N/A   Mist
9:53 PM 66.2 °F 65.5 °F 98% 29.88 in 3.0 mi South 4.6 mph - N/A   Clear
10:13 PM 66.2 °F 65.3 °F 97% 29.88 in 3.0 mi SSW 5.8 mph - N/A   Clear
10:32 PM 66.0 °F 65.3 °F 98% 29.87 in 2.5 mi South 4.6 mph - N/A   Clear
10:53 PM 64.8 °F 64.0 °F 98% 29.87 in 0.2 mi South 3.5 mph - N/A Fog Fog
11:13 PM 65.5 °F 64.9 °F 98% 29.88 in 0.2 mi Calm Calm - N/A Fog Fog
11:33 PM 64.2 °F 63.5 °F 98% 29.87 in 0.2 mi SSE 3.5 mph - N/A Fog Fog
11:53 PM 63.3 °F 62.8 °F 98% 29.88 in 0.2 mi Calm Calm - N/A Fog Fog